Location: Caltech
(34.1382°N, 118.1253°W)
Time: 13:18:34
(UTC-08:00)

Tiros 1 despin weight - All Passes

Search period start: 17 January 2017 00:00
Search period end: 27 January 2017 00:00
Orbit: 595 x 644 km, 48.2° (Epoch: 16 January)

Date Brightness Start Highest point End Pass type
(mag) Time Alt. Az. Time Alt. Az. Time Alt. Az.
17 Jan - 03:36:20 10° SSW 03:40:40 40° SE 03:44:58 10° ENE visible
17 Jan - 05:18:02 10° W 05:22:18 36° NNW 05:26:31 10° NE visible
17 Jan - 07:02:17 10° NW 07:04:54 15° N 07:07:30 10° NNE daylight
17 Jan - 08:45:18 10° NNW 08:47:58 15° N 08:50:38 10° NE daylight
17 Jan - 10:26:18 10° NW 10:30:30 40° NNE 10:34:40 10° E daylight
17 Jan - 12:08:02 10° WNW 12:12:00 33° SW 12:15:57 10° SSE daylight
18 Jan - 02:14:44 10° SSE 02:16:37 12° SE 02:18:29 10° ESE night (unlit)
18 Jan - 03:53:02 10° SW 03:57:41 85° SE 04:02:16 10° NE visible
18 Jan - 05:36:01 10° WNW 05:39:42 23° NNW 05:43:22 10° NNE visible
18 Jan - 07:20:22 10° NNW 07:22:36 13° N 07:24:49 10° NNE daylight
18 Jan - 09:02:13 10° NNW 09:05:34 20° NNE 09:08:53 10° ENE daylight
18 Jan - 10:43:15 10° NW 10:47:43 77° NE 10:52:08 10° ESE daylight
18 Jan - 12:26:18 10° W 12:28:49 15° SW 12:31:20 10° SSW daylight
19 Jan - 02:29:30 10° S 02:33:25 27° SE 02:37:18 10° ENE night (unlit)
19 Jan - 04:10:20 10° WSW 04:14:50 49° NNW 04:19:18 10° NE visible
19 Jan - 05:54:14 10° NW 05:57:16 17° NNW 06:00:14 10° NNE visible
19 Jan - 07:37:53 10° NNW 07:40:19 14° N 07:42:42 10° NE daylight
19 Jan - 09:19:03 10° NW 09:23:02 30° NNE 09:26:57 10° E daylight
19 Jan - 11:00:27 10° WNW 11:04:46 50° SW 11:09:02 10° SSE daylight
20 Jan - 02:45:47 10° SW 02:50:21 57° SE 02:54:53 10° ENE night (unlit)
20 Jan - 04:28:06 10° W 04:32:09 29° NNW 04:36:10 10° NE visible
20 Jan - 06:12:29 10° NW 06:14:55 14° N 06:17:20 10° NNE visible
20 Jan - 07:54:57 10° NNW 07:57:58 17° NNE 08:00:56 10° ENE daylight
20 Jan - 09:35:57 10° NW 09:40:20 53° NNE 09:44:40 10° ESE daylight
20 Jan - 11:18:08 10° W 11:21:39 23° SW 11:25:09 10° S daylight
21 Jan - 01:23:03 10° S 01:26:12 18° SE 01:29:20 10° E night (unlit)
21 Jan - 03:02:46 10° WSW 03:07:25 71° NW 03:12:01 10° NE visible
21 Jan - 04:46:13 10° WNW 04:49:38 20° NNW 04:53:01 10° NNE visible
21 Jan - 06:30:20 10° NNW 06:32:37 14° N 06:34:54 10° NNE visible
21 Jan - 08:11:49 10° NNW 08:15:30 24° NNE 08:19:09 10° ENE daylight
21 Jan - 09:52:59 10° NW 09:57:28 78° SW 10:01:53 10° SE daylight
22 Jan - 01:38:44 10° SSW 01:43:03 38° SE 01:47:20 10° ENE night (unlit)
22 Jan - 03:20:18 10° W 03:24:39 38° NNW 03:28:58 10° NE visible
22 Jan - 05:04:29 10° NW 05:07:14 15° N 05:09:59 10° NNE visible
22 Jan - 06:47:37 10° NNW 06:50:19 15° N 06:52:59 10° NE daylight
22 Jan - 08:28:40 10° NW 08:32:54 38° NNE 08:37:03 10° E daylight
22 Jan - 10:10:22 10° WNW 10:14:27 35° SW 10:18:28 10° SSE daylight
23 Jan - 00:17:28 10° SSE 00:19:00 11° SE 00:20:32 10° ESE night (unlit)
23 Jan - 01:55:22 10° SW 02:00:02 80° SE 02:04:41 10° NE night (unlit)
23 Jan - 03:38:14 10° WNW 03:42:02 24° NNW 03:45:49 10° NNE visible
23 Jan - 05:22:35 10° NNW 05:24:56 14° N 05:27:16 10° NNE visible
23 Jan - 07:04:34 10° NNW 07:07:56 20° NNE 07:11:15 10° ENE daylight
23 Jan - 08:45:37 10° NW 08:50:08 72° NE 08:54:34 10° ESE daylight
23 Jan - 10:28:31 10° W 10:31:16 16° SW 10:34:01 10° SSW daylight
24 Jan - 00:31:57 10° S 00:35:48 25° SE 00:39:37 10° ENE night (unlit)
24 Jan - 02:12:37 10° WSW 02:17:11 53° NNW 02:21:43 10° NE night (unlit)
24 Jan - 03:56:27 10° WNW 03:59:35 18° NNW 04:02:42 10° NNE visible
24 Jan - 05:40:10 10° NNW 05:42:38 14° N 05:45:06 10° NE visible
24 Jan - 07:21:26 10° NW 07:25:24 29° NNE 07:29:20 10° E daylight
24 Jan - 09:02:47 10° WNW 09:07:12 54° SW 09:11:31 10° SE daylight
25 Jan - 00:48:09 10° SW 00:52:42 54° SE 00:57:15 10° ENE night (unlit)
25 Jan - 02:30:20 10° W 02:34:30 31° NNW 02:38:37 10° NE night (unlit)
25 Jan - 04:14:40 10° NW 04:17:14 14° N 04:19:47 10° NNE visible
25 Jan - 05:57:17 10° NNW 06:00:19 17° NNE 06:03:18 10° NE visible
25 Jan - 07:38:18 10° NW 07:42:44 50° NNE 07:47:05 10° ESE daylight
25 Jan - 09:20:25 10° WNW 09:24:05 25° SW 09:27:44 10° S daylight
25 Jan - 23:25:35 10° S 23:28:34 17° SE 23:31:34 10° E night (unlit)
26 Jan - 01:05:05 10° WSW 01:09:46 75° NW 01:14:26 10° NE night (unlit)
26 Jan - 02:48:25 10° WNW 02:51:57 21° NNW 02:55:28 10° NNE night (unlit)
26 Jan - 04:32:34 10° NNW 04:34:57 14° N 04:37:19 10° NNE visible
26 Jan - 06:14:10 10° NNW 06:17:52 23° NNE 06:21:30 10° ENE visible
26 Jan - 07:55:20 10° NW 07:59:53 83° SW 08:04:20 10° SE daylight
26 Jan - 09:39:37 10° WSW 09:40:51 11° SW 09:42:05 10° SW daylight
26 Jan - 23:41:08 10° SSW 23:45:25 36° SE 23:49:41 10° ENE night (unlit)
